| time (UTC) | temp C | wind direction | speed KPH | gust KPH | rain 1hr cm | rain 24hr cm | rain mn cm | humidity % | barometer mb |
| 20260504201532 | 18 | 3.2 | 19.3 | 0.00 | 0.00 | 0.00 | 54 | 1012.8 | |
| 20260504200030 | 18 | 1.6 | 24.1 | 0.00 | 0.00 | 0.00 | 56 | 1012.7 | |
| 20260504194527 | 18 | 3.2 | 24.1 | 0.00 | 0.00 | 0.00 | 55 | 1013.0 | |
| 20260504193024 | 18 | 1.6 | 17.7 | 0.00 | 0.00 | 0.00 | 55 | 1013.2 | |
| 20260504191523 | 18 | 6.4 | 20.9 | 0.00 | 0.00 | 0.00 | 53 | 1013.2 | |
| 20260504190017 | 19 | 1.6 | 16.1 | 0.00 | 0.00 | 0.00 | 52 | 1013.3 | |
| 20260504184515 | 19 | 0.0 | 16.1 | 0.00 | 0.00 | 0.00 | 51 | 1013.4 | |
| 20260504183011 | 19 | 0.0 | 19.3 | 0.00 | 0.00 | 0.00 | 50 | 1013.5 | |
| 20260504181509 | 19 | 0.0 | 16.1 | 0.00 | 0.00 | 0.00 | 49 | 1013.5 | |
| 20260504180009 | 20 | 0.0 | 11.3 | 0.00 | 0.00 | 0.00 | 48 | 1013.7 | |
| 20260504174603 | 19 | 0.0 | 14.5 | 0.00 | 0.00 | 0.00 | 51 | 1013.7 | |
| 20260504173058 | 18 | 0.0 | 17.7 | 0.00 | 0.00 | 0.00 | 51 | 1013.9 | |
| 20260504171554 | 19 | 1.6 | 17.7 | 0.00 | 0.00 | 0.00 | 50 | 1014.1 | |
| 20260504100109 | 8 | 0.0 | 0.0 | 0.00 | 0.00 | 0.00 | 67 | 1016.5 | |
| 20260504081550 | 8 | 0.0 | 0.0 | 0.00 | 0.00 | 0.00 | 58 | 1015.8 | |
| 20260504050011 | 9 | 0.0 | 0.0 | 0.00 | 0.00 | 0.00 | 63 | 1015.0 | |
| 20260504044505 | 10 | 0.0 | 0.0 | 0.00 | 0.00 | 0.00 | 61 | 1014.9 | |
| 20260504043003 | 10 | 0.0 | 0.0 | 0.00 | 0.00 | 0.00 | 61 | 1014.9 | |
| 20260504041603 | 10 | 0.0 | 0.0 | 0.00 | 0.00 | 0.00 | 61 | 1014.7 | |
| 20260504040055 | 10 | 0.0 | 0.0 | 0.00 | 0.00 | 0.00 | 61 | 1014.7 | |
| 20260504034553 | 10 | 0.0 | 0.0 | 0.00 | 0.00 | 0.00 | 61 | 1014.8 | |
| 20260504033052 | 10 | 0.0 | 0.0 | 0.00 | 0.00 | 0.00 | 60 | 1014.6 | |
| 20260504031550 | 9 | 0.0 | 0.0 | 0.00 | 0.00 | 0.00 | 59 | 1014.7 | |
| 20260504030047 | 8 | 0.0 | 0.0 | 0.00 | 0.00 | 0.00 | 59 | 1014.6 | |
| 20260504024601 | 8 | 0.0 | 0.0 | 0.00 | 0.00 | 0.00 | 60 | 1014.6 | |
| 20260504023045 | 8 | 0.0 | 0.0 | 0.00 | 0.00 | 0.00 | 57 | 1014.8 | |
| 20260504021542 | 8 | 0.0 | 0.0 | 0.00 | 0.00 | 0.00 | 55 | 1014.8 | |
| 20260504020042 | 8 | 0.0 | 0.0 | 0.00 | 0.00 | 0.00 | 54 | 1014.7 | |
| 20260504014536 | 10 | 0.0 | 0.0 | 0.00 | 0.00 | 0.00 | 49 | 1014.6 | |
| 20260504013036 | 10 | 0.0 | 0.0 | 0.00 | 0.00 | 0.00 | 47 | 1014.5 | |
| 20260504011530 | 10 | 0.0 | 0.0 | 0.00 | 0.00 | 0.00 | 46 | 1014.3 | |
| 20260504010026 | 11 | 0.0 | 0.0 | 0.00 | 0.00 | 0.00 | 41 | 1014.1 | |
| 20260504004528 | 11 | 0.0 | 0.0 | 0.00 | 0.00 | 0.00 | 40 | 1013.9 | |
| 20260504003028 | 11 | 0.0 | 0.0 | 0.00 | 0.00 | 0.00 | 39 | 1013.6 | |
| 20260504001521 | 12 | 0.0 | 0.0 | 0.00 | 0.00 | 0.00 | 36 | 1013.4 | |
| 20260504000045 | 13 | 0.0 | 0.0 | 0.00 | 0.00 | 0.00 | 35 | 1013.3 | |
| 20260503234515 | 13 | 0.0 | 0.0 | 0.00 | 0.00 | 0.00 | 33 | 1013.1 | |
| 20260503233012 | 13 | 0.0 | 1.6 | 0.00 | 0.00 | 0.00 | 32 | 1012.9 | |
| 20260503231511 | 14 | 0.0 | 1.6 | 0.00 | 0.00 | 0.00 | 31 | 1012.8 | |
| 20260503230011 | 15 | 0.0 | 0.0 | 0.00 | 0.00 | 0.00 | 29 | 1012.7 | |
| 20260503224506 | 15 | 0.0 | 3.2 | 0.00 | 0.00 | 0.00 | 29 | 1012.7 | |
| 20260503223005 | 15 | 0.0 | 0.0 | 0.00 | 0.00 | 0.00 | 28 | 1012.5 | |
| 20260503221502 | 15 | 0.0 | 16.1 | 0.00 | 0.00 | 0.00 | 29 | 1012.5 | |
| 20260503220100 | 15 | 0.0 | 11.3 | 0.00 | 0.00 | 0.00 | 28 | 1012.5 | |
| 20260503214558 | 15 | 0.0 | 12.9 | 0.00 | 0.00 | 0.00 | 30 | 1012.5 | |
| 20260503213057 | 15 | 0.0 | 0.0 | 0.00 | 0.00 | 0.00 | 31 | 1012.5 | |
| 20260503211608 | 15 | 0.0 | 6.4 | 0.00 | 0.00 | 0.00 | 31 | 1012.3 | |
| 20260503210048 | 15 | 0.0 | 8.0 | 0.00 | 0.00 | 0.00 | 31 | 1012.2 | |
| 20260503204548 | 15 | 0.0 | 16.1 | 0.00 | 0.00 | 0.00 | 32 | 1012.3 | |
| 20260503203103 | 15 | 0.0 | 16.1 | 0.00 | 0.00 | 0.00 | 32 | 1012.2 |